Location: St. Louis
(38.6270°N, 90.1994°W)
Time: 13:46:53
(UTC-06:00)

FO-29 - Visible Passes

Search period start: 21 January 2022 00:00
Search period end: 31 January 2022 00:00
Orbit: 801 x 1321 km, 98.5° (Epoch: 21 January)

Date Brightness Start Highest point End Pass type
(mag) Time Alt. Az. Time Alt. Az. Time Alt. Az.
21 Jan 10.3 18:47:45 30° E 18:49:04 32° ENE 18:55:11 10° N visible
21 Jan 10.7 20:34:11 42° W 20:34:11 42° W 20:40:28 10° NNW visible
22 Jan 11.3 17:52:08 10° E 17:55:03 13° NE 17:58:05 10° NNE visible
22 Jan 9.5 19:37:50 67° SE 19:38:38 75° ENE 19:45:48 10° N visible
22 Jan 12.0 21:24:16 17° W 21:24:33 17° W 21:28:47 10° NW visible
23 Jan 10.4 18:41:26 23° E 18:44:06 31° ENE 18:50:12 10° N visible
23 Jan 10.5 20:27:52 44° WSW 20:28:46 47° W 20:35:37 10° NNW visible
24 Jan 11.4 17:47:26 10° ENE 17:50:08 13° NE 17:52:56 10° NNE visible
24 Jan 9.6 19:31:24 44° SE 19:33:39 70° ENE 19:40:52 10° N visible
24 Jan 11.9 21:17:49 17° WSW 21:19:27 19° W 21:24:10 10° NW visible
25 Jan 12.9 06:41:32 10° ENE 06:44:34 12° E 06:47:31 10° ESE visible
25 Jan 10.5 18:34:49 15° ESE 18:39:09 29° ENE 18:45:14 10° N visible
25 Jan 10.4 20:21:14 35° SSW 20:23:43 51° W 20:30:46 10° NNW visible
26 Jan 11.4 17:42:47 10° ENE 17:45:14 12° NE 17:47:45 10° NNE visible
26 Jan 9.7 19:24:30 24° SSE 19:28:39 66° ENE 19:35:57 10° N visible
26 Jan 11.8 21:10:54 14° SW 21:14:21 21° W 21:19:31 10° NW visible
27 Jan 13.1 06:37:23 10° ENE 06:39:30 11° E 06:41:35 10° E visible
27 Jan 10.6 18:28:41 10° ESE 18:34:13 28° ENE 18:40:14 10° N visible
27 Jan 10.3 20:13:44 18° S 20:18:42 55° W 20:25:55 10° NNW visible
28 Jan 9.8 19:17:09 10° SSE 19:23:41 62° ENE 19:31:02 10° N visible
28 Jan 11.7 21:04:11 10° SW 21:09:17 23° W 21:14:49 10° NW visible
29 Jan 10.7 18:23:46 10° ESE 18:29:18 27° ENE 18:35:15 10° N visible
29 Jan 10.3 20:07:08 10° S 20:13:40 59° W 20:21:03 10° NNW visible
30 Jan 9.9 19:12:06 10° SSE 19:18:43 59° ENE 19:26:07 10° N visible
30 Jan 11.7 20:58:49 10° SW 21:04:13 25° W 21:10:05 10° NW visible
